Change the Weather History Date:

Tuesday, April 1, 2014

  Actual Average Record
Temperature  
Mean Temperature 33 °F 40 °F  
Max Temperature 43 °F 52 °F 72 °F (1991)
Min Temperature 23 °F 27 °F -11 °F (1899)
Degree Days  
Heating Degree Days 32 25  
Month to date heating degree days 32 25  
Since 1 July heating degree days 7435 7143  
Cooling Degree Days 0 0  
Month to date cooling degree days 0 0  
Year to date cooling degree days 0 0  
Moisture  
Dew Point 24 °F    
Average Humidity 73    
Maximum Humidity 92    
Minimum Humidity 53    
Precipitation  
Precipitation 0.00 in 0.02 in 0.56 in (1931)
Month to date precipitation 0.00 0.02  
Year to date precipitation 1.80 1.17  
Snow  
Snow 0.00 in 0.20 in 3.80 in (1957)
Month to date snowfall 0.0 0.2  
Since 1 July snowfall 44.4 34.4  
Snow Depth 0.00 in    
Sea Level Pressure  
Sea Level Pressure 29.95 in    
Wind  
Wind Speed 11 mph (East)    
Max Wind Speed 20 mph    
Max Gust Speed 23 mph    
Visibility 10 miles    
Events      
T = Trace of Precipitation, MM = Missing Value Source: NWS Daily Summary

Daily Weather History Graph

Daily Weather History Graph

Search for Another Location

Airport or City:

Trip Planner

Search our weather history database for the weather conditions in past years. The results will help you decide how hot, cold, wet, or windy it might be!

Date:

Astronomy

Apr. 01, 2014 Rise Set
Actual Time 6:56 AM MDT 7:49 PM MDT
Civil Twilight 6:25 AM MDT 8:21 PM MDT
Nautical Twilight 5:46 AM MDT 8:59 PM MDT
Astronomical Twilight 5:06 AM MDT 9:40 PM MDT
Moon 7:52 AM MDT (4/1) 10:28 PM MDT (4/1)
Length of Visible Light 13h 56m
Length of Day
12h 53m
Waxing Crescent, 5% of the Moon is Illuminated
Apr 1
Waxing Crescent
Apr 7
First Quarter
Apr 15
Full
Apr 22
Last Quarter
Apr 29
New

Hourly Weather History & Observations

Time (MDT) Temp. Windchill Dew Point Humidity Pressure Visibility Wind Dir Wind Speed Gust Speed Precip Events Conditions
12:53 AM 27.0 °F 16.1 °F 24.1 °F 89% 30.00 in 10.0 mi East 12.7 mph - N/A   Clear
1:53 AM 27.0 °F 17.3 °F 24.1 °F 89% 29.98 in 10.0 mi East 10.4 mph - N/A   Clear
2:53 AM 26.1 °F 16.8 °F 23.0 °F 88% 29.96 in 10.0 mi ENE 9.2 mph - N/A   Clear
3:53 AM 25.0 °F 14.8 °F 21.9 °F 88% 29.96 in 10.0 mi ENE 10.4 mph - N/A   Clear
4:53 AM 24.1 °F 12.5 °F 21.9 °F 91% 29.95 in 10.0 mi ENE 12.7 mph - N/A   Clear
5:53 AM 24.1 °F 13.7 °F 21.0 °F 88% 29.96 in 10.0 mi ENE 10.4 mph - N/A   Clear
6:53 AM 23.0 °F 9.6 °F 19.9 °F 88% 29.97 in 10.0 mi ENE 16.1 mph - N/A   Partly Cloudy
7:11 AM 23.0 °F 9.6 °F 19.9 °F 88% 29.89 in 10.0 mi East 16.1 mph - N/A   Mostly Cloudy
7:53 AM 24.1 °F 11.0 °F 19.9 °F 84% 29.98 in 10.0 mi East 16.1 mph - N/A   Overcast
8:53 AM 25.0 °F 14.8 °F 21.9 °F 88% 29.99 in 10.0 mi East 10.4 mph - N/A   Overcast
9:53 AM 27.0 °F 17.3 °F 23.0 °F 85% 29.99 in 10.0 mi East 10.4 mph - N/A   Overcast
10:17 AM 28.0 °F 18.1 °F 23.0 °F 81% 29.90 in 10.0 mi ENE 11.5 mph - N/A   Overcast
10:53 AM 30.0 °F 21.1 °F 23.0 °F 75% 29.99 in 10.0 mi East 10.4 mph - N/A   Overcast
11:53 AM 32.0 °F 22.5 °F 24.1 °F 73% 29.98 in 10.0 mi ENE 12.7 mph - N/A   Overcast
12:20 PM 33.1 °F 23.9 °F 24.1 °F 70% 29.90 in 10.0 mi ENE 12.7 mph - N/A   Overcast
12:53 PM 34.0 °F 26.0 °F 24.1 °F 67% 29.98 in 10.0 mi East 10.4 mph - N/A   Overcast
1:53 PM 36.0 °F 29.6 °F 25.0 °F 64% 29.97 in 10.0 mi ENE 8.1 mph - N/A   Overcast
2:53 PM 37.9 °F - 25.0 °F 60% 29.96 in 10.0 mi North - - N/A   Mostly Cloudy
3:09 PM 37.9 °F 32.7 °F 26.1 °F 62% 29.88 in 10.0 mi SE 6.9 mph - N/A   Partly Cloudy
3:53 PM 39.0 °F 34.0 °F 26.1 °F 60% 29.95 in 10.0 mi SE 6.9 mph - N/A   Clear
4:53 PM 41.0 °F 39.0 °F 26.1 °F 55% 29.94 in 10.0 mi SE 3.5 mph - N/A   Clear
5:53 PM 42.1 °F 37.7 °F 26.1 °F 53% 29.94 in 10.0 mi East 6.9 mph - N/A   Clear
6:53 PM 41.0 °F 35.8 °F 26.1 °F 55% 29.94 in 10.0 mi ENE 8.1 mph - N/A   Clear
7:53 PM 35.1 °F 28.6 °F 25.0 °F 67% 29.95 in 10.0 mi East 8.1 mph - N/A   Clear
8:53 PM 35.1 °F 27.9 °F 27.0 °F 72% 29.96 in 10.0 mi East 9.2 mph - N/A   Overcast
9:53 PM 33.1 °F 24.9 °F 25.0 °F 72% 29.96 in 10.0 mi East 10.4 mph - N/A   Overcast
10:53 PM 33.1 °F 23.0 °F 25.0 °F 72% 29.95 in 10.0 mi East 15.0 mph - N/A   Overcast
11:53 PM 28.9 °F 17.7 °F 23.0 °F 78% 29.95 in 10.0 mi East 15.0 mph - N/A   Clear